Regional Weather Roundup
Issued by NWS

Home | Current Version | Previous Version | Graphics & Text | Print | Product List | Glossary On
Versions: 1 2 3 4 5 6 7 8 9 10 11 12 13 14 15 16 17 18 19 20 21 22 23 24 25 26 27 28 29 30 31 32 33 34 35 36 37 38 39 40 41 42 43 44 45 46 47 48 49 50
000
ASUS45 KBOU 232110
RWRCO

WEATHER ROUNDUP FOR COLORADO
NATIONAL WEATHER SERVICE DENVER/BOULDER CO
300 PM MDT MON APR 23 2018

NOTE: "FAIR" INDICATES FEW OR NO CLOUDS BELOW 12000 FEET WITH NO
SIGNIFICANT WEATHER AND/OR OBSTRUCTIONS TO VISIBILITY.

COZ001>005-013-030-031-232200-
...NORTHWEST COLORADO...

CITY           SKY/WX    TMP DP  RH WIND       PRES   REMARKS
CRAIG          FAIR      68  35  29 W12G22    30.05F
HAYDEN         FAIR      65  32  29 W14G29    30.06F
MEEKER         FAIR      71  25  17 W14G26    30.04F
RANGELY        FAIR      73  32  22 W16G26    30.01F
RABBIT EARS PA CLOUDY    43  30  61 W5        30.26S
STEAMBOAT SPGS FAIR      64  31  28 W9G26     30.07F
WALDEN         FAIR      63  18  17 W24G40    30.13S
$$

COZ006>008-011-232200-
...WEST CENTRAL VALLEYS...

CITY           SKY/WX    TMP DP  RH WIND       PRES   REMARKS
GRAND JUNCTION FAIR      80  21  11 W25G32    29.99F
MONTROSE       FAIR      73  16  11 NW6       30.05F
EAGLE          FAIR      70  24  17 W15G25    30.08F
RIFLE          FAIR      75  23  14 W18G38    30.01F
DELTA            N/A    N/A N/A N/A MISG        N/A
NUCLA          FAIR      73  16  11 W8        30.10F
$$

COZ017>023-064>068-232200-
...SOUTHWEST COLORADO...

CITY           SKY/WX    TMP DP  RH WIND       PRES   REMARKS
DURANGO        FAIR      73  17  12 W15G29    30.11F
CORTEZ         FAIR      75  10   8 NW12G22   30.11F
PAGOSA SPRINGS FAIR      65  11  12 S8        30.18F
TELLURIDE      PTSUNNY   60  16  18 SW6       30.26F
WOLF CREEK PAS PTSUNNY   39  25  56 CALM      30.45F
$$

COZ009-010-012-014-032>034-037-058>063-232200-
...CENTRAL COLORADO...

CITY           SKY/WX    TMP DP  RH WIND       PRES   REMARKS
ASPEN          FAIR      63  26  24 S18G25    30.15F
BUENA VISTA    PTSUNNY   66  18  15 W18       30.15F
COPPER MTN     NOT AVBL
BERTHOUD PASS  CLOUDY    36  27  69 NW30G45   30.34F
COTTONWOOD PAS PTSUNNY   61  23  23 NW5       30.26R
GUNNISON       FAIR      64  18  17 W14G26    30.14F
GRANBY         CLOUDY    59  30  34 W8        30.17F
KREMMLING      PTSUNNY   68  21  17 NW5       30.11F
LEADVILLE      PTSUNNY   46  29  51 N9G20     30.26S
MONARCH PASS   FAIR      45  18  33 W36G47    30.46S
SALIDA         FAIR      69  17  13 NW16      30.19F
SUNLIGHT       FAIR      46  19  34 SW16G32   30.31F
WILKERSON PASS PTSUNNY   50  18  27 W6G18     30.34F
$$

COZ069>075-232200-
...SAN LUIS VALLEY/SANGRE DE CRISTO MOUNTAINS...

CITY           SKY/WX    TMP DP  RH WIND       PRES   REMARKS
ALAMOSA        FAIR      68  20  16 W13G21    30.14F
DEL NORTE      PTSUNNY   65  20  17 W22G28    30.16F
LA VETA PASS   CLOUDY    59  21  23 MISG      30.40F
SAGUACHE       NOT AVBL
$$

COZ035-036-038>040-232200-
...NORTHERN COLORADO FRONT RANGE...

CITY           SKY/WX    TMP DP  RH WIND       PRES   REMARKS
DENVER INTL AP PTSUNNY   68  33  27 VRB6      30.02R
AURORA         NOT AVBL
FRONT RANGE AP PTSUNNY   70  32  24 N6        30.04R
ERIE MUNI ARPT FAIR      69  38  32 NE5       30.05F
BOULDER MUN AP FAIR      66  37  34 CALM      30.00F
CENTENNIAL     PTSUNNY   70  31  23 N17       30.02S
BROOMFIELD     PTSUNNY   66  41  39 NE9       30.03F
FORT COLLINS   FAIR      69  44  40 S10G16    29.99F
LONGMONT       FAIR      73  39  29 E7        30.01F
$$

COZ041-046-047-076>085-087-088-232200-
...PIKES PEAK/PALMER DIVIDE AND SOUTHERN FOOTHILLS...

CITY           SKY/WX    TMP DP  RH WIND       PRES   REMARKS
COLO. SPRINGS  LGT RAIN  62  36  37 N10G18    30.10R
A. F. ACADEMY  MOSUNNY   64  37  37 SE15      30.08F
SCHRIEVER AFB  NOT AVBL
CHEYENNE MTN   PTSUNNY   61  36  39 E12G18    30.07S
ELLICOTT         N/A    N/A N/A N/A S15       30.07F
FALCON         LGT RAIN  60  32  35 S16G23    30.14R
FORT CARSON    FAIR      69  35  29 E6        30.05S
LIMON          FAIR      68  38  33 S14G24    30.05F
MONUMENT HILL  PTSUNNY   59  32  36 S10       30.11S
CANON CITY     FAIR      77  36  22 E10G23    30.01F
WALSENBURG     NOT AVBL
TRINIDAD       FAIR      72  36  26 E8        30.06S
$$

COZ042>045-048>051-090-091-232200-
...NORTHEAST COLORADO...

CITY           SKY/WX    TMP DP  RH WIND       PRES   REMARKS
GREELEY ARPT   FAIR      68  41  37 CALM      30.01R
AKRON          FAIR      66  43  43 S22G31    30.03F
BURLINGTON     FAIR      65  41  41 SE14G24   30.07F
WRAY           FAIR      68  37  32 SE16G26   30.04F
YUMA           FAIR      64  25  22 SE15G21   30.04S
STERLING       NOT AVBL
HOLYOKE        FAIR      68  39  34 SE16G26   30.04F
FORT MORGAN    FAIR      72  35  25 SE16G25   29.99F
$$

COZ086-089-092>099-232200-
...SOUTHEAST COLORADO...

CITY           SKY/WX    TMP DP  RH WIND       PRES   REMARKS
PUEBLO         FAIR      72  37  28 SE10      30.00F
LA JUNTA       FAIR      72  38  29 S7        30.00F
LAMAR          FAIR      73  40  30 S17G28    30.00F
SPRINGFIELD      N/A     69  42  37 S18G26    30.04F
$$



USA.gov is the U.S. government's official web portal to all federal, state and local government web resources and services.